Tracking 20228 objects as of 17-Jan-2020
HD Live streaming from Space Station
objects crossing your sky now

GP-B

Track GP-B now!
10-day predictions
GP-B is classified as:


NORAD ID: 28230
Int'l Code: 2004-014A
Perigee: 638.3 km
Apogee: 642.7 km
Inclination: 89.8 °
Period: 97.4 minutes
Semi major axis: 7011 km
RCS: 10.7347 m2 (large)
Launch date: April 20, 2004
Source: United States (US)
Launch site: AIR FORCE WESTERN TEST RANGE (AFWTR)
aabbcc
Your satellite tracking list
Your tracking list is empty




NASA's NSSDC Master Catalog

Two Line Element Set (TLE):
1 28230U 04014A   20016.48767579 +.00000082 +00000-0 +89163-5 0  9998
2 28230 089.8215 102.1857 0003111 080.4417 279.7157 14.78713876305686
Source of the keplerian elements: AFSPC